map of KOK home
KOK - Airport
Location
City:  Kokkola/Pietarsaari, Pohjanmaa (Österbotten, Ostrobothnia), Finland
Name:Kruunupyy
ICAO:EFKK
IATA:KOK

Details
Type:Airport (Aerodrome, Airfield)
Latitude:63°43'16"N (63.721172)
Longitude:23°08'35"E (23.143131)
Datum:WGS 1984
Elevation:84 ft (26 m)
Variation:9.41°E (WMM2015 magnetic declination)
0.18° annual change
Runways:2
Longest:8202 × 197 ft (2500 × 60 m), paved

Time
Time Zone:UTC+2 (DST+3)
Local Time:

Weather
METAR:EFKK 161950Z AUTO 21008KT CAVOK 06/05 Q1027

Related Locations
Nearby:
Farthest:NZTB: 11243 mi / 18094 km
Terra Nova Bay [Mario Zucchelli Station], AQ

Find:

   beyond  
but within

Other Information
Maps:
NOTAMs:
Links:
Sources:

  
  • flag of Finland
  

Sectional Chart

Flight Planning
at skyvector.com

Satellite Image

Google Maps Satellite view

 

Copyright © 2004-2018 Karl L. Swartz. All rights reserved.
The Great Circle Mapper name and logo are trademarks of the Great Circle Mapper.
All other trademarks mentioned herein belong to their respective owners.
Please see credits for attibutions and further copyright information.

  Follow gcmap on Facebook Follow gcmap on Twitter Follow gcmap on Google+ GCmap on LinkedIn

hCard Microformat

Geo Microformat